Showing default

COSMOS 2530, 43751

Orbit data source: Space-Track

COSMOS 2530, 43751 is a payload satellite owned by VVKO VKS (CIS) in LEO that was launched on Fri, 30 Nov 2018 UTC via an ROKOT launch vehicle from the Plesetsk Missile And Space Complex (PKMTR). Payload-class satellites include a variety of spacecraft equipped with specific instruments for various scientific and technological missions. These include communications satellites like Starlink; space stations such as the ISS; scientific satellites like the Hubble; Earth observation satellites from companies like Planet Labs, Umbra, and HawkEye 360; GPS; miniature CubeSats for education and research; and military/defense satellites.

Loading next visibility...
Identifier
43751, 2018-097A
Orbit
LEO
Last TLE update
3 hours ago
Origin
Manufacturer
Resehetnev ISS
Mission
Operational Defense Communications
Bus & Motor
STRELA-3M, Unknown motor
Mass
280 kg wet, 280 kg dry
Launch date (UTC)
2018-11-30 (7 years ago)
Launch vehicle
ROKOT
Launch site
Plesetsk Missile And Space Complex (PKMTR)
Object type
Payload
Rocket body
Debris
Shape & HBR
Cyl + 1 Ant, 7 m
Radar Cross Section
1.583 m², Large (>1 m²)

Expand to show TLE details & history

TLE from 3 hours ago
0 COSMOS 2530
1 43751U 18097A   25175.56355398  .00000015  00000-0  38545-4 0  9994
2 43751  82.5144  84.2770 0020680  94.0017 266.3428 12.42866759297954
Epoch: 2025-06-24T13:31Z
TLE epoch observation values (Epoch: 2025-06-24T13:31:31.063Z)
Latitude
0.00004°
Longitude
-31.5601°
Altitude
1,498.246 km
Speed
7.115 km/s
True Right ascension
05h 37m 06s
True Declination
0° 00' 00"
Sunlit
Object was in daylight at epoch
Visualization orbit readout
Latitude
-71.14074°
Longitude
170.8621°
Altitude
1,536.067 km
Speed
7.091 km/s
Apparent Right ascension
17h 02m 58s
Apparent Declination
-59° 03' 26"
Sunlit
Object is in full shadow
Visualization observer readout
Local Sidereal Time
04:00:29
Azimuth
202.152° SSW
Elevation
-68.458°
Doppler factor
1
Orbital elements
Apogee altitude
1,508.1 km
Perigee altitude
1,475.55 km
Semi-major axis
7,869.962 km
Eccentricity
0.00207
Inclination
82.5144°
RAAN
84.277°
Arg. of periapsis
94.0017°
True anomaly
Unknown
Mean anomaly
266.3428°
Eccentric anomaly
Unknown
Mean motion
3.10874 °/min
Orbital period
115.8 mins
BSTAR
0.000038545
Loading maneuver chart data...
Loading SW <> Apogee altitude chart data...
Loading historical data...
Loading historical data...
Loading historical data...
Loading historical data...
Loading historical data...
Loading historical data...
Loading historical data...
Other satellites on launch #97 in the year 2018 (2018-11-30 UTC)

COSMOS 2530 Visibility forecast

Observer location: undefined°, undefined°

Span
Click to sort rows by Start time (UTC) header in descending order
Start Az.
Max El. time (UTC)
Max El. Az.
Max El.
End time (UTC)
End Az.
14 mins2025-06-24 17:29:36.067Z140.804° SSE2025-06-24 17:36:36.067Z80.119° E28.598°2025-06-24 17:43:36.067Z25.627° NE
15 mins2025-06-24 19:25:36.067Z211.898° SW2025-06-24 19:32:36.067Z281.994° WNW38.151°2025-06-24 19:40:36.067Z357.601° N
7 mins2025-06-25 03:42:36.067Z40.712° NE2025-06-25 03:45:36.067Z63.403° ENE14.417°2025-06-25 03:49:36.067Z91.755° ESE
15 mins2025-06-25 05:36:36.067Z356.448° N2025-06-25 05:43:36.067Z84.257° E44.31°2025-06-25 05:51:36.067Z167.618° S
10 mins2025-06-25 07:34:36.067Z317.908° NNW2025-06-25 07:39:36.067Z278.252° WNW19.589°2025-06-25 07:44:36.067Z240.28° WSW
4 mins2025-06-25 16:44:36.067Z101.262° ESE2025-06-25 16:47:36.067Z78.087° E16.225°2025-06-25 16:48:36.067Z69.943° E
|